Time,TemperatureF,DewpointF,PressureIn,WindDirection,WindDirectionDegrees,WindSpeedMPH,WindSpeedGustMPH,Humidity,HourlyPrecipIn,Conditions,Clouds,dailyrainin,SolarRadiationWatts/m^2,SoftwareType,DateUTC
2013-02-05 00:03:00,33.0,28.0,-100.00,SE,138,1.0,5.0,82,0.00,,,0.00,0.000000,,2013-02-05 05:03:00,
2013-02-05 00:12:00,33.0,28.0,-100.00,SE,138,1.0,5.0,82,0.00,,,0.00,0.000000,,2013-02-05 05:12:00,
2013-02-05 00:32:00,33.0,28.0,-100.00,NW,326,1.0,3.0,81,0.00,,,0.00,0.000000,,2013-02-05 05:32:00,
2013-02-05 00:42:00,33.0,28.0,-100.00,NW,326,1.0,3.0,81,0.00,,,0.00,0.000000,,2013-02-05 05:42:00,
2013-02-05 00:52:00,33.0,28.0,-100.00,NW,326,1.0,3.0,81,0.00,,,0.00,0.000000,,2013-02-05 05:52:00,
2013-02-05 01:02:00,33.0,28.0,-100.00,NW,326,1.0,3.0,81,0.00,,,0.00,0.000000,,2013-02-05 06:02:00,
2013-02-05 01:11:00,33.0,28.0,-100.00,NW,326,1.0,3.0,81,0.00,,,0.00,0.000000,,2013-02-05 06:11:00,
2013-02-05 01:32:00,33.0,28.0,-100.00,NW,321,2.0,4.0,83,0.00,,,0.00,0.000000,,2013-02-05 06:32:00,
2013-02-05 01:42:00,33.0,28.0,-100.00,NW,321,2.0,4.0,83,0.00,,,0.00,0.000000,,2013-02-05 06:42:00,
2013-02-05 01:52:00,33.0,28.0,-100.00,NW,321,2.0,4.0,83,0.00,,,0.00,0.000000,,2013-02-05 06:52:00,
2013-02-05 02:01:00,33.0,28.0,-100.00,NW,321,2.0,4.0,83,0.00,,,0.00,0.000000,,2013-02-05 07:01:00,
2013-02-05 02:11:00,33.0,28.0,-100.00,NW,321,2.0,4.0,83,0.00,,,0.00,0.000000,,2013-02-05 07:11:00,
2013-02-05 02:32:00,33.0,28.0,-100.00,NE,34,1.0,3.0,81,0.00,,,0.00,0.000000,,2013-02-05 07:32:00,
2013-02-05 02:42:00,33.0,28.0,-100.00,NE,34,1.0,3.0,81,0.00,,,0.00,0.000000,,2013-02-05 07:42:00,
2013-02-05 02:52:00,33.0,28.0,-100.00,NE,34,1.0,3.0,81,0.00,,,0.00,0.000000,,2013-02-05 07:52:00,
2013-02-05 03:01:00,33.0,28.0,-100.00,NE,34,1.0,3.0,81,0.00,,,0.00,0.000000,,2013-02-05 08:01:00,
2013-02-05 03:11:00,33.0,28.0,-100.00,NE,34,1.0,3.0,81,0.00,,,0.00,0.000000,,2013-02-05 08:11:00,
2013-02-05 03:42:00,33.0,28.0,-100.00,WNW,287,2.0,2.0,83,0.00,,,0.00,0.000000,,2013-02-05 08:42:00,
2013-02-05 03:52:00,33.0,28.0,-100.00,WNW,287,2.0,2.0,83,0.00,,,0.00,0.000000,,2013-02-05 08:52:00,
2013-02-05 04:02:00,33.0,28.0,-100.00,WNW,287,2.0,2.0,83,0.00,,,0.00,0.000000,,2013-02-05 09:02:00,
2013-02-05 04:11:00,33.0,28.0,-100.00,WNW,287,2.0,2.0,83,0.00,,,0.00,0.000000,,2013-02-05 09:11:00,
2013-02-05 04:42:00,33.0,29.0,-100.00,NW,324,2.0,4.0,84,0.00,,,0.00,0.000000,,2013-02-05 09:42:00,
2013-02-05 04:52:00,33.0,29.0,-100.00,NW,324,2.0,4.0,84,0.00,,,0.00,0.000000,,2013-02-05 09:52:00,
2013-02-05 05:02:00,33.0,29.0,-100.00,NW,324,2.0,4.0,84,0.00,,,0.00,0.000000,,2013-02-05 10:02:00,
2013-02-05 05:11:00,33.0,29.0,-100.00,NW,324,2.0,4.0,84,0.00,,,0.00,0.000000,,2013-02-05 10:11:00,
2013-02-05 05:32:00,33.0,30.0,-100.00,NW,314,2.0,4.0,88,0.00,,,0.00,0.000000,,2013-02-05 10:32:00,
2013-02-05 05:42:00,33.0,30.0,-100.00,NW,314,2.0,4.0,88,0.00,,,0.00,0.000000,,2013-02-05 10:42:00,
2013-02-05 05:52:00,33.0,30.0,-100.00,NW,314,2.0,4.0,88,0.00,,,0.00,0.000000,,2013-02-05 10:52:00,
2013-02-05 06:01:00,33.0,30.0,-100.00,NW,314,2.0,4.0,88,0.00,,,0.00,0.000000,,2013-02-05 11:01:00,
2013-02-05 06:11:00,33.0,30.0,-100.00,NW,314,2.0,4.0,88,0.00,,,0.00,0.000000,,2013-02-05 11:11:00,
2013-02-05 06:32:00,33.0,31.0,-100.00,North,4,2.0,5.0,91,0.00,,,0.00,0.000000,,2013-02-05 11:32:00,
2013-02-05 06:42:00,33.0,31.0,-100.00,North,4,2.0,5.0,91,0.00,,,0.00,0.000000,,2013-02-05 11:42:00,
2013-02-05 06:52:00,33.0,31.0,-100.00,North,4,2.0,5.0,91,0.00,,,0.00,0.000000,,2013-02-05 11:52:00,
2013-02-05 07:02:00,33.0,31.0,-100.00,North,4,2.0,5.0,91,0.00,,,0.00,0.000000,,2013-02-05 12:02:00,
2013-02-05 07:12:00,33.0,31.0,-100.00,North,4,2.0,5.0,91,0.00,,,0.00,0.000000,,2013-02-05 12:12:00,
2013-02-05 07:32:00,33.0,30.0,-100.00,NNW,342,2.0,4.0,89,0.00,,,0.00,0.000000,,2013-02-05 12:32:00,
2013-02-05 07:42:00,33.0,30.0,-100.00,NNW,342,2.0,4.0,89,0.00,,,0.00,0.000000,,2013-02-05 12:42:00,
2013-02-05 07:52:00,33.0,30.0,-100.00,NNW,342,2.0,4.0,89,0.00,,,0.00,0.000000,,2013-02-05 12:52:00,
2013-02-05 08:02:00,33.0,30.0,-100.00,NNW,342,2.0,4.0,89,0.00,,,0.00,0.000000,,2013-02-05 13:02:00,
2013-02-05 08:12:00,33.0,30.0,-100.00,NNW,342,2.0,4.0,89,0.00,,,0.00,0.000000,,2013-02-05 13:12:00,
2013-02-05 08:32:00,33.0,30.0,-100.00,NNW,338,1.0,4.0,90,0.00,,,0.00,7.000000,,2013-02-05 13:32:00,
2013-02-05 08:42:00,33.0,30.0,-100.00,NNW,338,1.0,4.0,90,0.00,,,0.00,7.000000,,2013-02-05 13:42:00,
2013-02-05 08:52:00,33.0,30.0,-100.00,NNW,338,1.0,4.0,90,0.00,,,0.00,7.000000,,2013-02-05 13:52:00,
2013-02-05 09:01:00,33.0,30.0,-100.00,NNW,338,1.0,4.0,90,0.00,,,0.00,7.000000,,2013-02-05 14:01:00,
2013-02-05 09:12:00,33.0,30.0,-100.00,NNW,338,1.0,4.0,90,0.00,,,0.00,7.000000,,2013-02-05 14:12:00,
2013-02-05 09:42:00,35.0,32.0,-100.00,NNW,329,2.0,4.0,87,0.00,,,0.00,55.000000,,2013-02-05 14:42:00,
2013-02-05 09:52:00,35.0,32.0,-100.00,NNW,329,2.0,4.0,87,0.00,,,0.00,55.000000,,2013-02-05 14:52:00,
2013-02-05 10:02:00,35.0,32.0,-100.00,NNW,329,2.0,4.0,87,0.00,,,0.00,55.000000,,2013-02-05 15:02:00,
2013-02-05 10:11:00,35.0,32.0,-100.00,NNW,329,2.0,4.0,87,0.00,,,0.00,55.000000,,2013-02-05 15:11:00,
2013-02-05 10:32:00,35.0,31.0,-100.00,WNW,290,1.0,3.0,85,0.01,,,0.01,72.000000,,2013-02-05 15:32:00,
2013-02-05 10:42:00,35.0,31.0,-100.00,WNW,290,1.0,3.0,85,0.01,,,0.01,72.000000,,2013-02-05 15:42:00,
2013-02-05 10:52:00,35.0,31.0,-100.00,WNW,290,1.0,3.0,85,0.01,,,0.01,72.000000,,2013-02-05 15:52:00,
2013-02-05 11:01:00,35.0,31.0,-100.00,WNW,290,1.0,3.0,85,0.01,,,0.01,72.000000,,2013-02-05 16:01:00,
2013-02-05 11:12:00,35.0,31.0,-100.00,WNW,290,1.0,3.0,85,0.01,,,0.01,72.000000,,2013-02-05 16:12:00,
2013-02-05 11:33:00,37.0,32.0,-100.00,NE,42,2.0,5.0,82,0.00,,,-99.99,144.000000,,2013-02-05 16:33:00,
2013-02-05 11:42:00,37.0,32.0,-100.00,NE,42,2.0,5.0,82,0.00,,,-99.99,144.000000,,2013-02-05 16:42:00,
2013-02-05 11:52:00,37.0,32.0,-100.00,NE,42,2.0,5.0,82,0.00,,,-99.99,144.000000,,2013-02-05 16:52:00,
2013-02-05 12:01:00,37.0,32.0,-100.00,NE,42,2.0,5.0,82,0.00,,,-99.99,144.000000,,2013-02-05 17:01:00,
2013-02-05 12:11:00,37.0,32.0,-100.00,NE,42,2.0,5.0,82,0.00,,,-99.99,144.000000,,2013-02-05 17:11:00,
2013-02-05 12:33:00,38.0,31.0,-100.00,East,99,2.0,5.0,77,0.00,,,0.01,138.000000,,2013-02-05 17:33:00,
2013-02-05 12:42:00,38.0,31.0,-100.00,East,99,2.0,5.0,77,0.00,,,0.01,138.000000,,2013-02-05 17:42:00,
2013-02-05 12:52:00,38.0,31.0,-100.00,East,99,2.0,5.0,77,0.00,,,0.01,138.000000,,2013-02-05 17:52:00,
2013-02-05 13:02:00,38.0,31.0,-100.00,East,99,2.0,5.0,77,0.00,,,0.01,138.000000,,2013-02-05 18:02:00,
2013-02-05 13:11:00,38.0,31.0,-100.00,East,99,2.0,5.0,77,0.00,,,0.01,138.000000,,2013-02-05 18:11:00,
2013-02-05 13:32:00,38.0,31.0,-100.00,South,174,1.0,3.0,77,0.00,,,0.01,76.000000,,2013-02-05 18:32:00,
2013-02-05 13:42:00,38.0,31.0,-100.00,South,174,1.0,3.0,77,0.00,,,0.01,76.000000,,2013-02-05 18:42:00,
2013-02-05 13:52:00,38.0,31.0,-100.00,South,174,1.0,3.0,77,0.00,,,0.01,76.000000,,2013-02-05 18:52:00,
2013-02-05 14:02:00,38.0,31.0,-100.00,South,174,1.0,3.0,77,0.00,,,0.01,76.000000,,2013-02-05 19:02:00,
2013-02-05 14:11:00,38.0,31.0,-100.00,South,174,1.0,3.0,77,0.00,,,0.01,76.000000,,2013-02-05 19:11:00,
2013-02-05 14:42:00,38.0,31.0,-100.00,SW,220,1.0,3.0,77,0.00,,,0.01,85.000000,,2013-02-05 19:42:00,
2013-02-05 14:52:00,38.0,31.0,-100.00,SW,220,1.0,3.0,77,0.00,,,0.01,85.000000,,2013-02-05 19:52:00,
2013-02-05 15:02:00,38.0,31.0,-100.00,SW,220,1.0,3.0,77,0.00,,,0.01,85.000000,,2013-02-05 20:02:00,
2013-02-05 15:11:00,38.0,31.0,-100.00,SW,220,1.0,3.0,77,0.00,,,0.01,85.000000,,2013-02-05 20:11:00,
2013-02-05 15:32:00,38.0,34.0,-100.00,ESE,117,2.0,5.0,86,0.01,,,-99.99,82.000000,,2013-02-05 20:32:00,
2013-02-05 15:42:00,38.0,34.0,-100.00,ESE,117,2.0,5.0,86,0.01,,,-99.99,82.000000,,2013-02-05 20:42:00,
2013-02-05 15:52:00,38.0,34.0,-100.00,ESE,117,2.0,5.0,86,0.01,,,-99.99,82.000000,,2013-02-05 20:52:00,
2013-02-05 16:02:00,38.0,34.0,-100.00,ESE,117,2.0,5.0,86,0.01,,,-99.99,82.000000,,2013-02-05 21:02:00,
2013-02-05 16:11:00,38.0,34.0,-100.00,ESE,117,2.0,5.0,86,0.01,,,-99.99,82.000000,,2013-02-05 21:11:00,
2013-02-05 16:42:00,39.0,33.0,-100.00,South,176,2.0,5.0,78,0.00,,,0.02,107.000000,,2013-02-05 21:42:00,
2013-02-05 16:52:00,39.0,33.0,-100.00,South,176,2.0,5.0,78,0.00,,,0.02,107.000000,,2013-02-05 21:52:00,
2013-02-05 17:02:00,39.0,33.0,-100.00,South,176,2.0,5.0,78,0.00,,,0.02,107.000000,,2013-02-05 22:02:00,
2013-02-05 17:11:00,39.0,33.0,-100.00,South,176,2.0,5.0,78,0.00,,,0.02,107.000000,,2013-02-05 22:11:00,
2013-02-05 17:32:00,38.0,31.0,-100.00,ESE,105,2.0,4.0,77,0.00,,,0.02,41.000000,,2013-02-05 22:32:00,
2013-02-05 17:42:00,38.0,31.0,-100.00,ESE,105,2.0,4.0,77,0.00,,,0.02,41.000000,,2013-02-05 22:42:00,
2013-02-05 17:52:00,38.0,31.0,-100.00,ESE,105,2.0,4.0,77,0.00,,,0.02,41.000000,,2013-02-05 22:52:00,
2013-02-05 18:02:00,38.0,31.0,-100.00,ESE,105,2.0,4.0,77,0.00,,,0.02,41.000000,,2013-02-05 23:02:00,
2013-02-05 18:11:00,38.0,31.0,-100.00,ESE,105,2.0,4.0,77,0.00,,,0.02,41.000000,,2013-02-05 23:11:00,
2013-02-05 18:33:00,35.0,30.0,-100.00,SE,136,0.0,4.0,83,0.00,,,0.02,4.000000,,2013-02-05 23:33:00,
2013-02-05 18:42:00,35.0,30.0,-100.00,SE,136,0.0,4.0,83,0.00,,,0.02,4.000000,,2013-02-05 23:42:00,
2013-02-05 18:53:00,35.0,30.0,-100.00,SE,136,0.0,4.0,83,0.00,,,0.02,4.000000,,2013-02-05 23:53:00,
2013-02-05 19:02:00,35.0,30.0,-100.00,SE,136,0.0,4.0,83,0.00,,,0.02,4.000000,,2013-02-06 00:02:00,
2013-02-05 19:12:00,35.0,30.0,-100.00,SE,136,0.0,4.0,83,0.00,,,0.02,4.000000,,2013-02-06 00:12:00,
2013-02-05 19:32:00,33.0,30.0,-100.00,NW,318,1.0,2.0,89,0.00,,,0.02,0.000000,,2013-02-06 00:32:00,
2013-02-05 19:42:00,33.0,30.0,-100.00,NW,318,1.0,2.0,89,0.00,,,0.02,0.000000,,2013-02-06 00:42:00,
2013-02-05 19:52:00,33.0,30.0,-100.00,NW,318,1.0,2.0,89,0.00,,,0.02,0.000000,,2013-02-06 00:52:00,
2013-02-05 20:02:00,33.0,30.0,-100.00,NW,318,1.0,2.0,89,0.00,,,0.02,0.000000,,2013-02-06 01:02:00,
2013-02-05 20:12:00,33.0,30.0,-100.00,NW,318,1.0,2.0,89,0.00,,,0.02,0.000000,,2013-02-06 01:12:00,
2013-02-05 20:33:00,32.0,30.0,-100.00,SE,143,1.0,2.0,91,0.00,,,0.02,0.000000,,2013-02-06 01:33:00,
2013-02-05 20:42:00,32.0,30.0,-100.00,SE,143,1.0,2.0,91,0.00,,,0.02,0.000000,,2013-02-06 01:42:00,
2013-02-05 20:53:00,32.0,30.0,-100.00,SE,143,1.0,2.0,91,0.00,,,0.02,0.000000,,2013-02-06 01:53:00,
2013-02-05 21:02:00,32.0,30.0,-100.00,SE,143,1.0,2.0,91,0.00,,,0.02,0.000000,,2013-02-06 02:02:00,
2013-02-05 21:12:00,32.0,30.0,-100.00,SE,143,1.0,2.0,91,0.00,,,0.02,0.000000,,2013-02-06 02:12:00,
2013-02-05 21:42:00,32.0,30.0,-100.00,SE,129,1.0,3.0,92,0.00,,,0.02,0.000000,,2013-02-06 02:42:00,
2013-02-05 21:53:00,32.0,30.0,-100.00,SE,129,1.0,3.0,92,0.00,,,0.02,0.000000,,2013-02-06 02:53:00,
2013-02-05 22:03:00,32.0,30.0,-100.00,SE,129,1.0,3.0,92,0.00,,,0.02,0.000000,,2013-02-06 03:03:00,
2013-02-05 22:12:00,32.0,30.0,-100.00,SE,129,1.0,3.0,92,0.00,,,0.02,0.000000,,2013-02-06 03:12:00,
2013-02-05 22:33:00,33.0,31.0,-100.00,WNW,285,1.0,3.0,93,0.00,,,0.02,0.000000,,2013-02-06 03:33:00,
2013-02-05 22:43:00,33.0,31.0,-100.00,WNW,285,1.0,3.0,93,0.00,,,0.02,0.000000,,2013-02-06 03:43:00,
2013-02-05 22:53:00,33.0,31.0,-100.00,WNW,285,1.0,3.0,93,0.00,,,0.02,0.000000,,2013-02-06 03:53:00,
2013-02-05 23:02:00,33.0,31.0,-100.00,WNW,285,1.0,3.0,93,0.00,,,0.02,0.000000,,2013-02-06 04:02:00,
2013-02-05 23:11:00,33.0,31.0,-100.00,WNW,285,1.0,3.0,93,0.00,,,0.02,0.000000,,2013-02-06 04:11:00,
2013-02-05 23:42:00,33.0,31.0,-100.00,SE,141,1.0,3.0,92,0.00,,,0.02,0.000000,,2013-02-06 04:42:00,
2013-02-05 23:52:00,33.0,31.0,-100.00,SE,141,1.0,3.0,92,0.00,,,0.02,0.000000,,2013-02-06 04:52:00,